Regional Weather Roundup
Issued by NWS

Home | Current Version | Previous Version | Text Only | Print | Product List | Glossary On
Versions: 1 2 3 4 5 6 7 8 9 10 11 12 13 14 15 16 17 18 19 20 21 22 23 24 25 26 27 28 29 30 31 32 33 34 35 36 37 38 39 40 41 42 43 44 45 46 47 48 49 50
000
ASUS42 KFFC 250203
RWRGA
WEATHER ROUNDUP FOR GEORGIA
NATIONAL WEATHER SERVICE PEACHTREE CITY GA
900 PM EST SAT FEB 24 2018

NOTE: "FAIR" INDICATES FEW OR NO CLOUDS BELOW 12,000 FEET WITH NO
SIGNIFICANT WEATHER AND/OR OBSTRUCTIONS TO VISIBILITY.

* = USE WITH CAUTION. THE STATIONS MARKED WITH AN ASTERISK MAY NOT
REPORT WEATHER SUCH AS PRECIPITATION, FOG, OR THUNDER AND ARE NOT
QUALITY CONTROLLED BY NWS.

THE REMARK "TC" DENOTES TEMPERATURE READING IN DEGREES CELSIUS.

GAZ001>058-250300-
NORTH GEORGIA

CITY           SKY/WX    TMP DP  RH WIND       PRES   REMARKS
ATLANTA        FAIR      73  59  61 S8        30.05S
ATHENS         FAIR      68  56  65 S3        30.06R
CHAMBLEE       CLOUDY    71  56  58 S5        30.05S
PEACHTREE CITY FAIR      72  57  59 S5        30.06S
ROME           FAIR      68  59  73 NW3       29.99S
WEST ATLANTA   CLOUDY    74  58  57 S7        30.04S
GAINESVILLE    CLOUDY    72  55  55 S3        30.07S
CARTERSVILLE   FAIR      70  58  65 S7        30.02F


CITY           SKY/WX    TMP DP  RH WIND       PRES   REMARKS
DALTON*        FAIR      70  59  68 SE6       30.01S
LAWRENCEVILLE* MOCLDY    71  56  58 S3        30.06S
MARIETTA       MOCLDY    72  56  57 S6        30.04S
KENNESAW*      MOCLDY    72  56  57 S3        30.05S
CANTON*        CLOUDY    72  57  60 CALM      30.05F
BLAIRSVILLE*   MOCLDY    69  54  59 S9        30.07S
$$

GAZ059>098-102>109-250300-
CENTRAL GEORGIA

CITY           SKY/WX    TMP DP  RH WIND       PRES   REMARKS
AUGUSTA-BUSH   FAIR      70  59  68 S9        30.08R
AUGUSTA-DANIEL FAIR      74  58  57 S7        30.09S
COLUMBUS       FAIR      75  58  55 SW10      30.07R
MACON          FAIR      72  60  66 S8        30.07R
ROBINS AFB     CLEAR     73  60  63 S7        30.07R


CITY           SKY/WX    TMP DP  RH WIND       PRES   REMARKS
LAGRANGE*      FAIR      74  59  59 SW6       30.06R
SYLVANIA*      FAIR      70  62  76 S5        30.13R
MILLEDGEVILLE* FAIR      70  61  73 SW3       30.08R
$$

GAZ099>101-110>166-250300-
SOUTH GEORGIA

CITY           SKY/WX    TMP DP  RH WIND       PRES   REMARKS
SAVANNAH       FAIR      68  64  87 S12       30.14S
VALDOSTA       FAIR      68  61  78 CALM      30.13R
ALMA           FAIR      69  59  70 SE3       30.12R
ST SIMONS      FAIR      69  67  93 SE9       30.14S
FT STEWART     FAIR      69  62  81 SE8       30.11S
ALBANY         LGT RAIN  72  59  63 S8        30.13R
HUNTER AFB     FAIR      67  62  85 S7        30.12S
MOODY AFB      FAIR      71  59  66 W7        30.12R
BRUNSWICK      FAIR      68  63  83 SE8       30.15R


CITY           SKY/WX    TMP DP  RH WIND       PRES   REMARKS
BAINBRIDGE*    FAIR      70  66  88 CALM      30.12R
MOULTRIE*      FAIR      68  61  77 CALM      30.13S
VIDALIA*       FAIR      72  61  68 SE5       30.12R
WAYCROSS*      FAIR      72  63  73 S5        30.13R
DOUGLAS*       FAIR      68  59  73 SW3       30.14R
$$




USA.gov is the U.S. government's official web portal to all federal, state and local government web resources and services.